www.pogodaiklimat.ru

Погода и климат >> Архив погоды >> Россия >> Калмыкия >> Малые Дербеты


ПОГОДА в Малых Дербетах

  • Прогноз погоды в Малых Дербетах
  • Монитор погоды в Малых Дербетах
  • Климат города

АРХИВ ПОГОДЫ в Малых Дербетах

Время (UTC), дата Ветер
(напр.,м/с)
 
Видим.   Явления Облачность Т
(С)
Тd
(С)
f
(%)
Тe
(С)
Тes
(С)
Комфортность P
(гПа)
Po
(гПа)
Тmin
(С)
Tmax
(С)
R
(мм)
R24
(мм)
S
(см)
06 17.08 С 2 20 км 3/0
[Ci fib]
+28.5 +8.0 28 +28 +36 жарко 1018.5 1017.5
09 17.08 СВ 5-10
{12}
20 км пыльный позёмок ясно +34.8 +0.4 11 +31 +39 жарко 1016.9 1015.9
12 17.08 В 6-10
{14}
20 км пыльный позёмок 4/3 1000 м
[Cu hum Ac cast]
+34.5 +0.4 11 +31 +33 жарко 1016.5 1015.5
15 17.08 В 5-10
{12}
20 км пыльный позёмок 10/0
[Ac trans]
+32.2 +2.3 15 +29 +29 жарко 1016.6 1015.6 +35.3
18 17.08 В 3
{10}
20 км ясно +25.3 +2.5 23 +24 +24 комфорт 1018.3 1017.3
21 17.08 СЗ 1 20 км ясно +19.5 +3.6 35 +21 +21 комфорт 1018.7 1017.6
00 18.08 СЗ 3 20 км ясно +17.5 +4.4 42 +18 +18 1018.7 1017.7
03 18.08 СЗ 2 20 км ясно +18.4 +8.7 53 +19 +20 1018.9 1017.8 +16.9
06 18.08 С 2 20 км ясно +29.5 +5.8 22 +28 +36 жарко 1019.2 1018.1
09 18.08 СВ 4 20 км 3/3 1000 м
[Cu med, cong]
+34.7 +3.6 14 +32 +39 жарко 1018.4 1017.4
12 18.08 В 6
{12}
20 км пыльный позёмок 5/5 1000 м
[Cu med, cong]
+34.2 +1.3 12 +31 +33 жарко 1017.5 1016.5
15 18.08 СВ 4
{10}
20 км 9/0
[Ac As]
+32.4 +1.8 14 +29 +30 жарко 1017.6 1016.6 +35.5
18 18.08 С 6 20 км пыльный позёмок 9/0
[Ac As]
+28.2 +6.2 25 +27 +27 жарко 1018.7 1017.6
21 18.08 С 1
{12}
20 км 3/0
[Ac cast]
+24.4 +6.5 32 +24 +24 комфорт 1019.5 1018.5
00 19.08 С 2 20 км 4/0
[Ac trans]
+23.0 +7.2 36 +24 +24 комфорт 1019.2 1018.1
03 19.08 СЗ 3 20 км 8/0
[Ac lent Cc]
+20.4 +9.7 50 +22 +22 комфорт 1019.8 1018.7 +20.0
06 19.08 СВ 3 20 км 3/0
[Ci fib]
+28.2 +7.8 28 +28 +34 жарко 1020.5 1019.5
09 19.08 СВ 5 20 км пыльный позёмок 3/0
[Ci fib]
+33.7 +4.1 16 +31 +38 жарко 1019.6 1018.6
12 19.08 В 5 20 км пыльный позёмок 4/3 1000 м
[Cu hum Ci fib]
+34.7 0.0 11 +31 +34 жарко 1018.4 1017.4
15 19.08 СВ 3
{10}
20 км 10/0
[Ci fib]
+33.8 -2.0 10 +30 +30 жарко 1018.3 1017.3 +35.4
18 19.08 СЗ 2 20 км ясно +24.0 +6.2 32 +24 +24 комфорт 1019.9 1018.8
21 19.08 СЗ 2 20 км ясно +21.2 +6.6 39 +22 +22 комфорт 1020.0 1018.9
00 20.08 СЗ 2 20 км ясно +19.6 +7.6 46 +21 +21 комфорт 1019.8 1018.7
03 20.08 СЗ 1 20 км 5/0
[Ac trans]
+16.8 +8.8 59 +18 +18 1020.3 1019.2 +16.7
06 20.08 В 2 20 км 8/0
[Ac cast Ci sp]
+29.4 +5.0 21 +28 +33 жарко 1020.4 1019.3
09 20.08 ЮВ 5-10
{12}
20 км пыльный позёмок 10/3 1000 м
[Cu med, cong Ci sp]
+34.4 +2.2 13 +31 +35 жарко 1019.4 1018.4
12 20.08 В 9-14
{14}
20 км пыльный позёмок 10/3 1000 м
[Cu med, cong Ac trans]
+33.0 +2.0 14 +30 +30 жарко 1019.3 1018.2
15 20.08 В 3
{16}
20 км 9/0
[Ac As]
+29.7 +2.9 18 +28 +28 жарко 1019.1 1018.1 +35.2
18 20.08 СВ 2 20 км в посл. час ливневой дождь 9/3 600 м
[Cb cap Ac As]
+27.2 +3.6 22 +26 +26 жарко 1019.7 1018.7
21 20.08 Ю 1 20 км 9/0
[Ac As]
+25.2 +7.0 31 +25 +25 комфорт 1019.6 1018.6
00 21.08 В 3 20 км 10/0
[Ac lent Ci fib]
+24.8 +6.8 32 +25 +25 комфорт 1019.4 1018.3
03 21.08 СВ 2 20 км 10/0
[Ac cast Cs]
+22.7 +6.6 35 +23 +24 комфорт 1019.0 1018.0 +22.5
06 21.08 В 6 20 км пыльный позёмок 10/0
[Cs]
+32.0 +1.8 15 +29 +32 жарко 1017.9 1016.8
09 21.08 В 8-13
{14}
20 км пыльный позёмок 3/0
[Ac trans]
+33.5 -4.1 9 +30 +32 жарко 1016.9 1015.9
12 21.08 В 6-12
{14}
20 км пыльный позёмок 5/0
[Ac cast]
+33.2 -3.0 10 +29 +32 жарко 1015.4 1014.4
15 21.08 В 5-11
{14}
20 км пыльный позёмок ясно +31.6 -1.3 12 +28 +28 жарко 1014.7 1013.7 +34.4
18 21.08 В 3
{11}
20 км ясно +23.7 +1.4 23 +23 +23 комфорт 1015.2 1014.1
21 21.08 СВ 2 20 км ясно +20.6 +2.3 30 +22 +22 комфорт 1014.8 1013.8
00 22.08 С 2 20 км ясно +17.1 +3.7 41 +17 +17 1014.5 1013.4
03 22.08 СВ 2 20 км ясно +16.6 +2.8 40 +17 +17 1014.1 1013.0 +15.2
06 22.08 В 7 20 км пыльный позёмок ясно +29.4 -1.4 13 +26 +29 жарко 1013.7 1012.7
09 22.08 В 7-12
{13}
20 км пыльный позёмок ясно +33.9 -0.7 11 +30 +34 жарко 1012.0 1011.0
12 22.08 В 7-12
{14}
20 км пыльный позёмок ясно +35.9 +0.3 11 +32 +35 жарко 1010.5 1009.5
15 22.08 В 5-10
{14}
20 км пыльный позёмок 3/0
[Ac lent]
+33.9 +0.4 12 +31 +31 жарко 1009.8 1008.8 +36.3
18 22.08 В 4
{10}
20 км 10/0
[Ci sp]
+29.2 +0.9 16 +27 +27 жарко 1011.5 1010.5
21 22.08 В 1 20 км 10/0
[Ac lent Ci fib]
+23.4 +2.7 26 +23 +23 комфорт 1011.6 1010.5
00 23.08 С 1 20 км 10/0
[Ci fib]
+20.5 +3.0 31 +22 +22 комфорт 1010.9 1009.8
03 23.08 В 2 20 км 10/0
[Ac cast Ci]
+19.9 +3.2 33 +21 +21 комфорт 1011.1 1010.0 +17.6
06 23.08 ЮВ 5 20 км пыльный позёмок 10/0
[Ac trans]
+28.2 +9.6 31 +28 +30 жарко 1011.2 1010.1
09 23.08 ЮВ 12 1000 м пыльная буря 10/0
[Ci sp]
+35.7 +2.0 12 +32 +32 жарко 1009.4 1008.4
12 23.08 В 10-18
{19}
1000 м пыльная буря {метель} 9/0
[Ac As]
+33.9 +0.6 12 +31 +31 жарко 1009.9 1008.9
15 23.08 Ю 7-15
{18}
2000 м пыльная буря {метель} 9/0
[Ac As]
+30.5 +6.1 22 +29 +29 жарко 1011.0 1010.0 +36.4
18 23.08 В 3
{15}
20 км в посл. час ливневой дождь 10/10 480 м
[Cb cap]
+20.3 +18.2 88 +24 +24 комфорт 1013.3 1012.2
21 23.08 ЮЗ 2 20 км ясно +20.0 +17.6 86 +24 +24 комфорт 1014.9 1013.8
00 24.08 В 1 20 км ясно +17.3 +16.2 93 +18 +18 1015.7 1014.6
03 24.08 Ю 1 20 км 9/9 500 м
[Sc]
+18.0 +16.8 93 +19 +19 1017.3 1016.2 +16.5 2

 

Местоположение метеостанции Малые Дербеты (Калмыкия, Россия): широта 47.93 долгота 44.70 высота над уровнем моря 9 м.

В архиве по умолчанию представлена погода в Малых Дербетах за последнюю неделю. Архивные данные за месяц целиком и за предыдущие месяцы, начиная с января 2011 года, Вы можете получить, выбрав интересующий диапазон дат из раскрывающегося списка и нажав кнопку "Ввод!".

Внимание! Время в таблицах - всемирное. Для получения местного времени необходимо прибавить поправку, которая в Малых Дербетах равна 3 ч.

Смотрите также архив погоды в соседних городах и на ближайших метеорологических станциях:

Погода в Кетченерах (Калмыкия, Россия) (69 км)
Погода в Волгограде город (Волгоградская область, Россия) (84 км)
Погода в Волгограде (Волгоградская область, Россия) (98 км)
Погода в Черный Яр (Астраханская область, Россия) (107 км)
Погода в Котельниково (Волгоградская область, Россия) (121 км)
Погода в Калаче-на-Дону (Волгоградская область, Россия) (123 км)
Погода в Нижнем Чире (Волгоградская область, Россия) (125 км)
Погода в Юсте (Калмыкия, Россия) (151 км)
Погода в Верхнем Баскунчаке (Астраханская область, Россия) (154 км)
Погода в Иловле (Волгоградская область, Россия) (161 км)

Пояснения к столбцам:

Ветер - указаны скорость ветра в м/с - средняя за 10 мин, порывы в срок и между сроками (в фигурных скобках) и направление, откуда дует ветер: С - северный, СВ - северо-восточный, В - восточный, ЮВ - юго-восточный, Ю - южный, ЮЗ - юго-западный, З - западный, СЗ - северо-западный.
Видимость - горизонтальная дальность видимости в метрах или километрах. При видимости от 1 до 10 км при отсутствии осадков обычно наблюдается дымка, при ухудшении видимости до 1 км и менее - туман. В сухую погоду видимость может ухудшаться дымом, пылью или мглою.
Явления - указаны атмосферные явления, наблюдавшиеся в срок или в последний час перед сроком; фигурными скобками обозначены явления, наблюдавшиеся между сроками (за 1-3 часа до срока); квадратными скобками обозначены град или гололедные отложения с указанием их диаметра в мм.
Облачность - указаны через наклонную черту общая и нижняя облачность в баллах и высота нижней границы облаков в метрах; квадратными скобками обозначены формы облаков: Ci - перистые, Cs - перисто-слоистые, Cc - перисто-кучевые, Ac - высококучевые, As - высокослоистые, Sc - слоисто-кучевые, Ns - слоисто-дождевые, Cu - кучевые, Cb - кучево-дождевые. Подробнее классификацию облаков см. в Атласе облаков (PDF).
T - Температура воздуха - температура, измеренная на высоте 2 м над землей.
Td - Температура точки росы - температура, при понижении до которой содержащийся в воздухе водяной пар достигнет насыщения.
f - Относительная влажность воздуха - влажноcть воздуха, измеренная на высоте 2 м над землей.
Te - Эффективная температура - температура, которую ощущает одетый по сезону человек в тени. Характеристика душности погоды. При расчете учитывается влияние влажности воздуха и скорости ветра на теплоощущения человека.
Tes - Эффективная температура на солнце - температура, которую ощущает человек, с поправкой на солнечный нагрев. Характеристика знойности погоды. Зависит от высоты солнца над горизонтом, облачности и скорости ветра. Ночью, в пасмурную погоду, а также при ветре 12 м/с и более поправка равна нулю.
P - Атмосферное давление - приведенное к уровню моря атмосферное давление.
Po - Атмосферное давление - измеренное на уровне метеостанции атмосферное давление.
Tmin - Минимальная температура - минимум температуры воздуха на высоте 2 м над землей.
Tmax - Максимальная температура - максимум температуры воздуха на высоте 2 м над землей.
R - Количество осадков - Количество выпавших осадков за период времени, мм. При наведении курсора мыши на число - период времени, за который выпало указанное количество осадков.
R24 - Количество осадков - Количество выпавших осадков за 24 часа, мм.
S - Снежный покров - Высота снежного покрова, см. При наведении курсора мыши на число - состояние снежного покрова и степень покрытия местности в баллах.